Location: Umburanas
(4.5000°S, 37.9667°W)
Time: 18:30:59
(UTC+00:00)

ADEOS Rocket - Pass Details

Date: 19 November 2019
Orbit: 858 x 1307 km, 98.7° (Epoch: 11 December)

Event Time Altitude Azimuth Distance (km) Brightness Sun altitude
Exits shadow 20:57:47 - 36° (NE) 3,090 5.1 -8.0°
Reaches altitude 10° 20:59:25 10° 44° (NE) 2,512 4.6 -8.4°
Maximum altitude 21:04:10 30° 104° (ESE) 1,490 3.6 -9.5°
Drops below altitude 10° 21:08:54 10° 163° (SSE) 2,506 5.2 -10.6°
Sets 21:11:33 0° 174° (S) 3,469 6.1 -11.2°
